Weather History for Williams, AZ

Change the Weather History Date:

Tuesday, February 14, 2012

  Actual Average (KFLG) Record (KFLG)
Temperature  
Mean Temperature 28 °F 32 °F  
Max Temperature 33 °F 45 °F 66 °F (2014)
Min Temperature 24 °F 19 °F -15 °F (1949)
Degree Days  
Heating Degree Days 36 33  
Month to date heating degree days 473  
Since 1 July heating degree days 4389  
Cooling Degree Days 0 0  
Month to date cooling degree days 0  
Year to date cooling degree days 0  
Moisture  
Dew Point 22 °F    
Average Humidity 74    
Maximum Humidity 93    
Minimum Humidity 48    
Precipitation  
Precipitation 0.00 in 0.07 in 2.37 in (1980)
Month to date precipitation 1.02  
Year to date precipitation 3.07  
Snow  
Snow 0.00 in 0.70 in 13.00 in (1954)
Month to date snowfall 10.9  
Since 1 July snowfall 63.2  
Snow Depth -    
Sea Level Pressure  
Sea Level Pressure 29.87 in    
Wind  
Wind Speed 13 mph (WSW)    
Max Wind Speed 23 mph    
Max Gust Speed 33 mph    
Visibility 9 miles    
Events      
T = Trace of Precipitation, MM = Missing Value Source: NWS Daily Summary

Daily Weather History Graph

Daily Weather History Graph

Search for Another Location

Airport:

Trip Planner

Search our weather history database for the weather conditions in past years. The results will help you decide how hot, cold, wet, or windy it might be!

Date:

Astronomy

Feb. 14, 2012 Rise Set
Actual Time 7:16 AM MST 6:09 PM MST
Civil Twilight 6:50 AM MST 6:35 PM MST
Nautical Twilight 6:20 AM MST 7:05 PM MST
Astronomical Twilight 5:51 AM MST 7:35 PM MST
Moon 1:01 AM MST (2/14) 11:23 AM MST (2/14)
Length of Visible Light 11h 45m
Length of Day
10h 53m
Waning Gibbous, 49% of the Moon is Illuminated
Feb 14
Waning Gibbous
Feb 21
New
Feb 29
First Quarter
Mar 8
Full
Mar 14
Last Quarter

Hourly Weather History & Observations

Time (MST) Temp. Windchill Dew Point Humidity Pressure Visibility Wind Dir Wind Speed Gust Speed Precip Events Conditions
12:15 AM 33.8 °F 21.6 °F 26.6 °F 75% 29.83 in 10.0 mi South 23.0 mph 28.8 mph N/A   Mostly Cloudy
12:35 AM 32.0 °F 20.1 °F 24.8 °F 75% 29.83 in 10.0 mi SSW 19.6 mph 28.8 mph N/A   Mostly Cloudy
12:55 AM 32.0 °F 22.1 °F 24.8 °F 75% 29.82 in 10.0 mi South 13.8 mph 26.5 mph N/A   Mostly Cloudy
1:15 AM 32.0 °F 20.8 °F 24.8 °F 75% 29.82 in 9.0 mi SSW 17.3 mph 27.6 mph N/A   Mostly Cloudy
1:35 AM 32.0 °F 20.5 °F 24.8 °F 75% 29.81 in 10.0 mi South 18.4 mph 23.0 mph N/A   Overcast
1:55 AM 32.0 °F 19.2 °F 26.6 °F 80% 29.82 in 3.0 mi SW 23.0 mph 32.2 mph N/A   Overcast
2:15 AM 28.4 °F 15.4 °F 26.6 °F 93% 29.83 in 8.0 mi SW 19.6 mph 28.8 mph N/A   Overcast
2:35 AM 30.2 °F 17.4 °F 24.8 °F 80% 29.82 in 10.0 mi SW 20.7 mph 33.4 mph N/A   Overcast
3:15 AM 28.4 °F 17.5 °F 24.8 °F 86% 29.83 in 5.0 mi SSW 13.8 mph 24.2 mph N/A   Overcast
3:35 AM 28.4 °F 19.1 °F 26.6 °F 93% 29.82 in 9.0 mi WSW 10.4 mph 20.7 mph N/A   Overcast
3:55 AM 28.4 °F 18.5 °F 24.8 °F 86% 29.82 in 10.0 mi SW 11.5 mph 20.7 mph N/A   Overcast
4:15 AM 28.4 °F 15.1 °F 24.8 °F 86% 29.83 in 10.0 mi SW 20.7 mph 24.2 mph N/A   Overcast
4:35 AM 28.4 °F 18.5 °F 23.0 °F 80% 29.83 in 10.0 mi WSW 11.5 mph 18.4 mph N/A   Mostly Cloudy
5:15 AM 28.4 °F 19.1 °F 23.0 °F 80% 29.83 in 9.0 mi SSW 10.4 mph - N/A   Overcast
5:35 AM 26.6 °F 18.2 °F 21.2 °F 80% 29.83 in 10.0 mi SSW 8.1 mph - N/A   Mostly Cloudy
5:55 AM 26.6 °F 19.1 °F 21.2 °F 80% 29.83 in 10.0 mi SW 6.9 mph - N/A   Scattered Clouds
6:15 AM 24.8 °F 16.9 °F 21.2 °F 86% 29.83 in 10.0 mi WSW 6.9 mph - N/A   Partly Cloudy
6:35 AM 24.8 °F 16.9 °F 21.2 °F 86% 29.83 in 10.0 mi SW 6.9 mph - N/A   Clear
6:55 AM 24.8 °F 14.6 °F 21.2 °F 86% 29.83 in 10.0 mi SW 10.4 mph - N/A   Clear
7:15 AM 24.8 °F 16.1 °F 21.2 °F 86% 29.84 in 10.0 mi SW 8.1 mph - N/A   Partly Cloudy
7:55 AM 24.8 °F 15.3 °F 19.4 °F 80% 29.85 in 10.0 mi SSW 9.2 mph - N/A   Clear
8:15 AM 26.6 °F 15.7 °F 21.2 °F 80% 29.86 in 10.0 mi SSW 12.7 mph 17.3 mph N/A   Clear
8:35 AM 28.4 °F 17.5 °F 19.4 °F 69% 29.86 in 10.0 mi SSW 13.8 mph 17.3 mph N/A   Clear
8:55 AM 28.4 °F 18.0 °F 19.4 °F 69% 29.87 in 10.0 mi SSW 12.7 mph 18.4 mph N/A   Clear
9:15 AM 28.4 °F 20.4 °F 19.4 °F 69% 29.88 in 10.0 mi SW 8.1 mph - N/A   Clear
9:55 AM 32.0 °F 26.4 °F 17.6 °F 55% 29.88 in 10.0 mi SSW 5.8 mph - N/A   Scattered Clouds
10:15 AM 32.0 °F 25.6 °F 17.6 °F 55% 29.88 in 10.0 mi West 6.9 mph - N/A   Mostly Cloudy
10:35 AM 30.2 °F 21.3 °F 17.6 °F 60% 29.88 in 10.0 mi WNW 10.4 mph - N/A   Mostly Cloudy
10:55 AM 32.0 °F 24.8 °F 15.8 °F 51% 29.88 in 10.0 mi West 8.1 mph - N/A   Partly Cloudy
11:15 AM 32.0 °F 24.8 °F 15.8 °F 51% 29.88 in 10.0 mi West 8.1 mph - N/A   Partly Cloudy
11:35 AM 32.0 °F 23.6 °F 17.6 °F 55% 29.88 in 10.0 mi WNW 10.4 mph - N/A   Partly Cloudy
11:55 AM 33.8 °F 29.6 °F 15.8 °F 48% 29.88 in 10.0 mi West 4.6 mph - N/A   Clear
12:15 PM 32.0 °F - 15.8 °F 51% 29.88 in 10.0 mi Calm Calm - N/A   Mostly Cloudy
12:35 PM 32.0 °F 24.8 °F 17.6 °F 55% 29.88 in 10.0 mi WNW 8.1 mph - N/A   Overcast
12:55 PM 32.0 °F - 17.6 °F 55% 29.87 in 10.0 mi Calm Calm - N/A   Mostly Cloudy
1:15 PM 33.8 °F 26.4 °F 17.6 °F 52% 29.86 in 10.0 mi NNW 9.2 mph - N/A   Mostly Cloudy
1:35 PM 32.0 °F 24.2 °F 17.6 °F 55% 29.86 in 10.0 mi WNW 9.2 mph - N/A   Overcast
1:55 PM 32.0 °F - 19.4 °F 60% 29.86 in 3.0 mi Calm Calm - N/A   Overcast
2:15 PM 32.0 °F 24.2 °F 21.2 °F 64% 29.86 in 8.0 mi NNW 9.2 mph - N/A   Overcast
2:35 PM 32.0 °F 26.4 °F 19.4 °F 60% 29.86 in 10.0 mi WNW 5.8 mph - N/A   Mostly Cloudy
2:55 PM 32.0 °F 22.5 °F 19.4 °F 60% 29.86 in 9.0 mi NW 12.7 mph - N/A   Overcast
3:15 PM 32.0 °F 24.8 °F 21.2 °F 64% 29.87 in 10.0 mi WSW 8.1 mph - N/A   Overcast
3:35 PM 32.0 °F 24.2 °F 23.0 °F 69% 29.88 in 8.0 mi WNW 9.2 mph - N/A   Overcast
3:55 PM 30.2 °F 22.6 °F 26.6 °F 86% 29.89 in 0.8 mi West 8.1 mph - N/A   Overcast
4:15 PM 30.2 °F 23.4 °F 26.6 °F 86% 29.89 in 5.0 mi WNW 6.9 mph - N/A   Overcast
4:35 PM 30.2 °F - 24.8 °F 80% 29.89 in 4.0 mi Calm Calm - N/A   Overcast
4:55 PM 30.2 °F - 23.0 °F 75% 29.90 in 10.0 mi Calm Calm - N/A   Overcast
5:15 PM 32.0 °F - 23.0 °F 69% 29.90 in 10.0 mi Calm Calm - N/A   Overcast
5:35 PM 30.2 °F 20.8 °F 24.8 °F 80% 29.92 in 9.0 mi NW 11.5 mph - N/A   Mostly Cloudy
5:55 PM 28.4 °F 19.7 °F 23.0 °F 80% 29.93 in 10.0 mi WNW 9.2 mph - N/A   Overcast
6:35 PM 26.6 °F 18.2 °F 24.8 °F 93% 29.95 in 7.0 mi NNW 8.1 mph - N/A   Overcast
6:55 PM 26.6 °F 19.1 °F 24.8 °F 93% 29.95 in 7.0 mi NNW 6.9 mph - N/A   Overcast
7:15 PM 26.6 °F 19.1 °F 24.8 °F 93% 29.96 in 3.0 mi NW 6.9 mph - N/A   Overcast
7:35 PM 26.6 °F - 24.8 °F 93% 29.97 in 10.0 mi Calm Calm - N/A   Mostly Cloudy
7:55 PM 26.6 °F - 24.8 °F 93% 29.98 in 10.0 mi Calm Calm - N/A   Mostly Cloudy
8:15 PM 24.8 °F - 24.8 °F 100% 29.98 in 10.0 mi Calm Calm - N/A   Mostly Cloudy
8:35 PM 26.6 °F - 24.8 °F 93% 29.99 in 10.0 mi Calm Calm - N/A   Overcast
8:55 PM 26.6 °F - 24.8 °F 93% 29.99 in 10.0 mi Calm Calm - N/A   Overcast
9:15 PM 24.8 °F - 23.0 °F 93% 30.00 in 10.0 mi Calm Calm - N/A   Mostly Cloudy
9:35 PM 26.6 °F 20.0 °F 23.0 °F 86% 30.01 in 10.0 mi WNW 5.8 mph - N/A   Mostly Cloudy
9:55 PM 26.6 °F 19.1 °F 24.8 °F 93% 30.01 in 10.0 mi WNW 6.9 mph - N/A   Mostly Cloudy
10:15 PM 26.6 °F - 23.0 °F 86% 30.02 in 10.0 mi Calm Calm - N/A   Overcast
10:35 PM 24.8 °F - 23.0 °F 93% 30.02 in 10.0 mi Calm Calm - N/A   Scattered Clouds
10:55 PM 24.8 °F - 23.0 °F 93% 30.01 in 10.0 mi Calm Calm - N/A   Clear
11:15 PM 23.0 °F - 21.2 °F 93% 30.01 in 10.0 mi Calm Calm - N/A   Clear
11:35 PM 23.0 °F - 21.2 °F 93% 30.01 in 10.0 mi Calm Calm - N/A   Clear
11:55 PM 23.0 °F - 21.2 °F 93% 30.01 in 10.0 mi Calm Calm - N/A   Clear